Wetterdaten: Sonntag, 13.09.2015
Datum Zeit Auen-Temp. Temp gefhlt Luftfeuchte Luftdruck Regen Wind Richtung Richtung Taupunkt Windben
13.09.2015 00:00 12,0 C 12,4 C 72 % 1017,1 hPa 0,0 mm 0,0 km/h (0 Bft) NW 315 7,1 C 0,0 km/h (0 Bft)
13.09.2015 00:05 12,0 C 12,0 C 73 % 1017,1 hPa 0,0 mm 0,0 km/h (0 Bft) NW 315 7,3 C 0,0 km/h (0 Bft)
13.09.2015 00:10 11,7 C 11,6 C 74 % 1017,1 hPa 0,0 mm 0,0 km/h (0 Bft) NW 315 7,2 C 0,0 km/h (0 Bft)
13.09.2015 00:15 12,1 C 11,9 C 75 % 1017,2 hPa 0,0 mm 0,0 km/h (0 Bft) SO 135 7,8 C 0,0 km/h (0 Bft)
13.09.2015 00:20 12,9 C 12,7 C 73 % 1017,2 hPa 0,0 mm 1,6 km/h (1 Bft) N-NW 337 8,2 C 0,0 km/h (0 Bft)
13.09.2015 00:25 13,3 C 13,1 C 74 % 1017,2 hPa 0,0 mm 2,3 km/h (1 Bft) SO 135 8,8 C 3,1 km/h (1 Bft)
13.09.2015 00:30 14,0 C 13,7 C 73 % 1017,2 hPa 0,0 mm 2,3 km/h (1 Bft) W-SW 247 9,2 C 8,8 km/h (2 Bft)
13.09.2015 00:35 14,2 C 13,9 C 72 % 1017,2 hPa 0,0 mm 3,4 km/h (1 Bft) SW 225 9,2 C 3,9 km/h (1 Bft)
13.09.2015 00:40 13,8 C 13,7 C 72 % 1017,2 hPa 0,0 mm 3,9 km/h (1 Bft) O-SO 112 8,8 C 14,8 km/h (3 Bft)
13.09.2015 00:45 13,3 C 13,3 C 71 % 1017,2 hPa 0,0 mm 1,8 km/h (1 Bft) SW 225 8,2 C 0,0 km/h (0 Bft)
13.09.2015 00:50 13,5 C 13,4 C 72 % 1017,2 hPa 0,0 mm 0,8 km/h (0 Bft) S-SW 202 8,6 C 5,4 km/h (1 Bft)
13.09.2015 00:55 13,7 C 13,5 C 72 % 1017,4 hPa 0,0 mm 1,8 km/h (1 Bft) S 180 8,7 C 0,0 km/h (0 Bft)
13.09.2015 01:00 13,7 C 13,5 C 72 % 1017,4 hPa 0,0 mm 1,6 km/h (1 Bft) S-SO 157 8,7 C 3,9 km/h (1 Bft)
13.09.2015 01:05 13,8 C 13,6 C 72 % 1017,4 hPa 0,0 mm 1,0 km/h (0 Bft) SO 135 8,8 C 5,2 km/h (1 Bft)
13.09.2015 01:10 13,8 C 13,6 C 71 % 1017,4 hPa 0,0 mm 2,6 km/h (1 Bft) S-SO 157 8,6 C 4,1 km/h (1 Bft)
13.09.2015 01:15 13,8 C 13,6 C 71 % 1017,4 hPa 0,0 mm 3,4 km/h (1 Bft) S-SO 157 8,6 C 0,0 km/h (0 Bft)
13.09.2015 01:20 13,6 C 13,4 C 71 % 1017,4 hPa 0,0 mm 2,1 km/h (1 Bft) S-SW 202 8,4 C 0,0 km/h (0 Bft)
13.09.2015 01:25 13,3 C 13,2 C 72 % 1017,4 hPa 0,0 mm 1,3 km/h (1 Bft) O-SO 112 8,4 C 3,6 km/h (1 Bft)
13.09.2015 01:30 13,0 C 12,9 C 72 % 1017,4 hPa 0,0 mm 0,8 km/h (0 Bft) W 270 8,1 C 3,4 km/h (1 Bft)
13.09.2015 01:35 12,7 C 12,7 C 73 % 1017,2 hPa 0,0 mm 0,8 km/h (0 Bft) SW 225 8,0 C 3,4 km/h (1 Bft)
13.09.2015 01:40 12,1 C 12,3 C 73 % 1017,2 hPa 0,0 mm 0,8 km/h (0 Bft) SO 135 7,4 C 0,0 km/h (0 Bft)
13.09.2015 01:45 12,3 C 12,2 C 75 % 1017,2 hPa 0,0 mm 0,8 km/h (0 Bft) S 180 8,0 C 3,1 km/h (1 Bft)
13.09.2015 01:50 12,8 C 12,6 C 76 % 1017,2 hPa 0,0 mm 1,0 km/h (0 Bft) O-SO 112 8,7 C 0,0 km/h (0 Bft)
13.09.2015 01:55 12,6 C 12,4 C 75 % 1017,5 hPa 0,0 mm 1,0 km/h (0 Bft) SW 225 8,3 C 2,8 km/h (1 Bft)
13.09.2015 02:00 12,0 C 11,9 C 75 % 1017,5 hPa 0,0 mm 0,5 km/h (0 Bft) SO 135 7,7 C 2,6 km/h (1 Bft)
13.09.2015 02:05 12,0 C 11,9 C 76 % 1017,5 hPa 0,0 mm 1,3 km/h (1 Bft) W 270 7,9 C 3,9 km/h (1 Bft)
13.09.2015 02:10 11,7 C 11,6 C 77 % 1017,5 hPa 0,0 mm 1,0 km/h (0 Bft) W-NW 292 7,8 C 3,1 km/h (1 Bft)
13.09.2015 02:15 11,2 C 11,2 C 77 % 1017,2 hPa 0,0 mm 0,5 km/h (0 Bft) S 180 7,3 C 0,0 km/h (0 Bft)
13.09.2015 02:20 11,7 C 11,5 C 78 % 1017,2 hPa 0,0 mm 2,6 km/h (1 Bft) SO 135 8,0 C 5,2 km/h (1 Bft)
13.09.2015 02:25 11,3 C 11,3 C 78 % 1017,2 hPa 0,0 mm 2,3 km/h (1 Bft) W 270 7,6 C 3,6 km/h (1 Bft)
13.09.2015 02:30 10,5 C 10,8 C 77 % 1017,2 hPa 0,0 mm 1,0 km/h (0 Bft) NO 45 6,6 C 0,0 km/h (0 Bft)
13.09.2015 02:35 10,5 C 10,5 C 78 % 1017,1 hPa 0,0 mm 0,3 km/h (0 Bft) O-SO 112 6,8 C 0,0 km/h (0 Bft)
13.09.2015 02:40 10,8 C 10,6 C 79 % 1017,1 hPa 0,0 mm 0,8 km/h (0 Bft) SW 225 7,3 C 6,2 km/h (2 Bft)
13.09.2015 02:45 10,5 C 10,4 C 79 % 1017,1 hPa 0,0 mm 1,6 km/h (1 Bft) O-SO 112 7,0 C 0,0 km/h (0 Bft)
13.09.2015 02:50 10,1 C 10,0 C 78 % 1017,1 hPa 0,0 mm 0,5 km/h (0 Bft) SW 225 6,4 C 0,0 km/h (0 Bft)
13.09.2015 02:55 10,1 C 9,9 C 79 % 1016,9 hPa 0,0 mm 0,0 km/h (0 Bft) SO 135 6,6 C 0,0 km/h (0 Bft)
13.09.2015 03:00 10,2 C 9,9 C 80 % 1016,9 hPa 0,0 mm 0,0 km/h (0 Bft) S 180 6,9 C 3,4 km/h (1 Bft)
13.09.2015 03:05 10,5 C 10,2 C 80 % 1016,9 hPa 0,0 mm 1,8 km/h (1 Bft) S 180 7,2 C 7,3 km/h (2 Bft)
13.09.2015 03:10 10,5 C 10,4 C 78 % 1016,9 hPa 0,0 mm 2,1 km/h (1 Bft) SO 135 6,8 C 0,0 km/h (0 Bft)
13.09.2015 03:15 10,2 C 10,1 C 79 % 1017,0 hPa 0,0 mm 1,0 km/h (0 Bft) O-NO 67 6,7 C 0,0 km/h (0 Bft)
13.09.2015 03:20 9,9 C 9,8 C 80 % 1017,0 hPa 0,0 mm 0,0 km/h (0 Bft) O 90 6,6 C 0,0 km/h (0 Bft)
13.09.2015 03:25 9,9 C 9,7 C 80 % 1017,0 hPa 0,0 mm 0,0 km/h (0 Bft) SO 135 6,6 C 0,0 km/h (0 Bft)
13.09.2015 03:30 10,0 C 9,7 C 80 % 1017,0 hPa 0,0 mm 0,0 km/h (0 Bft) S-SO 157 6,7 C 0,0 km/h (0 Bft)
13.09.2015 03:35 10,1 C 9,8 C 78 % 1016,9 hPa 0,0 mm 0,0 km/h (0 Bft) SO 135 6,4 C 0,0 km/h (0 Bft)
13.09.2015 03:40 10,4 C 10,1 C 79 % 1016,9 hPa 0,0 mm 1,3 km/h (1 Bft) SO 135 6,9 C 3,4 km/h (1 Bft)
13.09.2015 03:45 10,3 C 10,0 C 80 % 1016,9 hPa 0,0 mm 1,6 km/h (1 Bft) NO 45 7,0 C 0,0 km/h (0 Bft)
13.09.2015 03:50 9,8 C 9,6 C 80 % 1016,9 hPa 0,0 mm 0,5 km/h (0 Bft) SO 135 6,5 C 0,0 km/h (0 Bft)
13.09.2015 03:55 10,0 C 9,7 C 80 % 1016,8 hPa 0,0 mm 0,0 km/h (0 Bft) S-SO 157 6,7 C 0,0 km/h (0 Bft)
13.09.2015 04:00 10,1 C 9,9 C 79 % 1016,8 hPa 0,0 mm 0,3 km/h (0 Bft) S-SO 157 6,6 C 4,1 km/h (1 Bft)
13.09.2015 04:05 10,2 C 10,0 C 79 % 1016,8 hPa 0,0 mm 1,3 km/h (1 Bft) SO 135 6,7 C 4,7 km/h (1 Bft)
13.09.2015 04:07 10,1 C 10,0 C 79 % 1016,8 hPa 0,0 mm 2,1 km/h (1 Bft) S 180 6,6 C 3,1 km/h (1 Bft)
13.09.2015 04:10 10,1 C 10,0 C 79 % 1016,8 hPa 0,0 mm 2,1 km/h (1 Bft) S 180 6,6 C 3,1 km/h (1 Bft)
13.09.2015 04:15 10,2 C 10,0 C 80 % 1016,6 hPa 0,0 mm 1,3 km/h (1 Bft) S 180 6,9 C 2,6 km/h (1 Bft)
13.09.2015 04:20 10,4 C 10,2 C 80 % 1016,6 hPa 0,0 mm 1,6 km/h (1 Bft) SO 135 7,1 C 4,1 km/h (1 Bft)
13.09.2015 04:25 10,2 C 10,1 C 80 % 1016,6 hPa 0,0 mm 2,8 km/h (1 Bft) S 180 6,9 C 6,2 km/h (2 Bft)
13.09.2015 04:30 10,4 C 10,3 C 80 % 1016,6 hPa 0,0 mm 4,1 km/h (1 Bft) S-SO 157 7,1 C 5,4 km/h (1 Bft)
13.09.2015 04:35 10,4 C 10,4 C 79 % 1016,4 hPa 0,0 mm 4,1 km/h (1 Bft) S 180 6,9 C 5,4 km/h (1 Bft)
13.09.2015 04:40 10,3 C 10,2 C 80 % 1016,4 hPa 0,0 mm 3,6 km/h (1 Bft) SO 135 7,0 C 3,6 km/h (1 Bft)
13.09.2015 04:45 10,2 C 10,2 C 80 % 1016,4 hPa 0,0 mm 2,6 km/h (1 Bft) SO 135 6,9 C 0,0 km/h (0 Bft)
13.09.2015 04:50 9,6 C 9,6 C 80 % 1016,4 hPa 0,0 mm 0,8 km/h (0 Bft) SO 135 6,3 C 0,0 km/h (0 Bft)
13.09.2015 04:55 9,7 C 9,6 C 80 % 1016,4 hPa 0,0 mm 0,0 km/h (0 Bft) S-SO 157 6,4 C 0,0 km/h (0 Bft)
13.09.2015 05:00 9,4 C 9,3 C 80 % 1016,4 hPa 0,0 mm 0,0 km/h (0 Bft) S 180 6,1 C 0,0 km/h (0 Bft)
13.09.2015 05:05 9,2 C 9,1 C 80 % 1016,4 hPa 0,0 mm 0,0 km/h (0 Bft) S 180 5,9 C 0,0 km/h (0 Bft)
13.09.2015 05:10 9,0 C 8,9 C 80 % 1016,4 hPa 0,0 mm 0,0 km/h (0 Bft) SW 225 5,7 C 0,0 km/h (0 Bft)
13.09.2015 05:15 9,1 C 8,9 C 81 % 1016,1 hPa 0,0 mm 0,0 km/h (0 Bft) SW 225 6,0 C 0,0 km/h (0 Bft)
13.09.2015 05:20 8,9 C 8,7 C 81 % 1016,1 hPa 0,0 mm 0,0 km/h (0 Bft) S 180 5,8 C 0,0 km/h (0 Bft)
13.09.2015 05:25 8,8 C 8,6 C 81 % 1016,1 hPa 0,0 mm 0,0 km/h (0 Bft) S 180 5,7 C 0,0 km/h (0 Bft)
13.09.2015 05:30 8,9 C 8,6 C 82 % 1016,1 hPa 0,0 mm 0,0 km/h (0 Bft) S-SW 202 6,0 C 0,0 km/h (0 Bft)
13.09.2015 05:35 9,3 C 9,0 C 82 % 1016,2 hPa 0,0 mm 0,0 km/h (0 Bft) S 180 6,4 C 0,0 km/h (0 Bft)
13.09.2015 05:40 8,7 C 8,6 C 82 % 1016,2 hPa 0,0 mm 0,3 km/h (0 Bft) NO 45 5,8 C 0,0 km/h (0 Bft)
13.09.2015 05:45 8,7 C 8,5 C 82 % 1016,2 hPa 0,0 mm 0,3 km/h (0 Bft) NO 45 5,8 C 0,0 km/h (0 Bft)
13.09.2015 05:50 8,5 C 8,3 C 82 % 1016,2 hPa 0,0 mm 0,0 km/h (0 Bft) NO 45 5,6 C 0,0 km/h (0 Bft)
13.09.2015 05:55 8,3 C 8,1 C 82 % 1016,0 hPa 0,0 mm 0,0 km/h (0 Bft) NO 45 5,4 C 0,0 km/h (0 Bft)
13.09.2015 06:00 8,4 C 8,2 C 83 % 1016,0 hPa 0,0 mm 0,0 km/h (0 Bft) O 90 5,7 C 0,0 km/h (0 Bft)
13.09.2015 06:05 8,3 C 8,1 C 83 % 1016,0 hPa 0,0 mm 0,0 km/h (0 Bft) O-NO 67 5,6 C 0,0 km/h (0 Bft)
13.09.2015 06:10 8,3 C 8,1 C 83 % 1016,0 hPa 0,0 mm 0,0 km/h (0 Bft) W 270 5,6 C 0,0 km/h (0 Bft)
13.09.2015 06:15 8,3 C 8,1 C 84 % 1016,0 hPa 0,0 mm 0,8 km/h (0 Bft) O-NO 67 5,8 C 0,0 km/h (0 Bft)
13.09.2015 06:20 8,3 C 8,1 C 85 % 1016,0 hPa 0,0 mm 1,0 km/h (0 Bft) O-NO 67 5,9 C 0,0 km/h (0 Bft)
13.09.2015 06:25 8,0 C 7,9 C 85 % 1016,0 hPa 0,0 mm 0,3 km/h (0 Bft) O-NO 67 5,6 C 0,0 km/h (0 Bft)
13.09.2015 06:30 7,8 C 7,7 C 85 % 1016,0 hPa 0,0 mm 0,0 km/h (0 Bft) O-NO 67 5,4 C 0,0 km/h (0 Bft)
13.09.2015 06:35 7,6 C 7,5 C 85 % 1015,8 hPa 0,0 mm 0,0 km/h (0 Bft) NO 45 5,2 C 0,0 km/h (0 Bft)
13.09.2015 06:40 7,8 C 7,6 C 85 % 1015,8 hPa 0,0 mm 0,0 km/h (0 Bft) NO 45 5,4 C 0,0 km/h (0 Bft)
13.09.2015 06:45 7,8 C 7,6 C 85 % 1015,8 hPa 0,0 mm 0,0 km/h (0 Bft) O-NO 67 5,4 C 0,0 km/h (0 Bft)
13.09.2015 06:50 7,6 C 7,5 C 85 % 1015,8 hPa 0,0 mm 0,0 km/h (0 Bft) N-NO 22 5,2 C 0,0 km/h (0 Bft)
13.09.2015 06:55 7,4 C 7,3 C 85 % 1015,5 hPa 0,0 mm 0,0 km/h (0 Bft) N-NW 337 5,0 C 3,1 km/h (1 Bft)
13.09.2015 07:00 7,3 C 7,2 C 85 % 1015,5 hPa 0,0 mm 0,0 km/h (0 Bft) N-NW 337 4,9 C 0,0 km/h (0 Bft)
13.09.2015 07:05 7,6 C 7,4 C 86 % 1015,5 hPa 0,0 mm 0,0 km/h (0 Bft) N-NW 337 5,4 C 0,0 km/h (0 Bft)
13.09.2015 07:10 7,7 C 7,5 C 86 % 1015,5 hPa 0,0 mm 0,0 km/h (0 Bft) N-NW 337 5,5 C 0,0 km/h (0 Bft)
13.09.2015 07:15 7,5 C 7,4 C 86 % 1015,5 hPa 0,0 mm 0,0 km/h (0 Bft) N-NW 337 5,3 C 0,0 km/h (0 Bft)
13.09.2015 07:20 7,1 C 7,1 C 86 % 1015,5 hPa 0,0 mm 0,0 km/h (0 Bft) N-NW 337 4,9 C 0,0 km/h (0 Bft)
13.09.2015 07:25 7,3 C 7,2 C 86 % 1015,5 hPa 0,0 mm 0,0 km/h (0 Bft) O 90 5,1 C 0,0 km/h (0 Bft)
13.09.2015 07:30 7,7 C 7,7 C 83 % 1015,5 hPa 0,0 mm 0,0 km/h (0 Bft) O-SO 112 5,0 C 0,0 km/h (0 Bft)
13.09.2015 07:35 8,1 C 8,0 C 83 % 1015,7 hPa 0,0 mm 0,0 km/h (0 Bft) S-SO 157 5,4 C 0,0 km/h (0 Bft)
13.09.2015 07:40 7,9 C 7,9 C 88 % 1015,7 hPa 0,0 mm 0,0 km/h (0 Bft) W 270 6,0 C 0,0 km/h (0 Bft)
13.09.2015 07:45 7,8 C 7,8 C 87 % 1015,7 hPa 0,0 mm 0,0 km/h (0 Bft) W 270 5,8 C 0,0 km/h (0 Bft)
13.09.2015 07:50 7,8 C 7,8 C 87 % 1015,7 hPa 0,0 mm 0,0 km/h (0 Bft) W 270 5,8 C 0,0 km/h (0 Bft)
13.09.2015 07:55 7,9 C 8,0 C 84 % 1015,4 hPa 0,0 mm 0,0 km/h (0 Bft) W 270 5,4 C 0,0 km/h (0 Bft)
13.09.2015 08:00 8,4 C 8,5 C 84 % 1015,4 hPa 0,0 mm 0,3 km/h (0 Bft) N-NW 337 5,9 C 0,0 km/h (0 Bft)
13.09.2015 08:05 8,5 C 9,2 C 88 % 1015,4 hPa 0,0 mm 0,5 km/h (0 Bft) N-NW 337 6,6 C 2,6 km/h (1 Bft)
13.09.2015 08:10 8,8 C 12,4 C 84 % 1015,4 hPa 0,0 mm 1,0 km/h (0 Bft) S 180 6,2 C 0,0 km/h (0 Bft)
13.09.2015 08:15 9,1 C 13,8 C 84 % 1015,2 hPa 0,0 mm 0,8 km/h (0 Bft) S 180 6,5 C 2,6 km/h (1 Bft)
13.09.2015 08:20 10,0 C 16,0 C 84 % 1015,2 hPa 0,0 mm 0,0 km/h (0 Bft) S 180 7,4 C 0,0 km/h (0 Bft)
13.09.2015 08:25 10,4 C 17,4 C 83 % 1015,2 hPa 0,0 mm 0,0 km/h (0 Bft) W 270 7,6 C 0,0 km/h (0 Bft)
13.09.2015 08:30 10,4 C 18,9 C 83 % 1015,2 hPa 0,0 mm 0,0 km/h (0 Bft) W 270 7,6 C 0,0 km/h (0 Bft)
13.09.2015 08:35 10,5 C 19,8 C 83 % 1014,9 hPa 0,0 mm 0,0 km/h (0 Bft) W-SW 247 7,7 C 0,0 km/h (0 Bft)
13.09.2015 08:40 10,7 C 21,3 C 83 % 1014,9 hPa 0,0 mm 0,0 km/h (0 Bft) W 270 7,9 C 0,0 km/h (0 Bft)
13.09.2015 08:45 11,2 C 22,0 C 83 % 1014,9 hPa 0,0 mm 0,0 km/h (0 Bft) W 270 8,4 C 0,0 km/h (0 Bft)
13.09.2015 08:50 12,5 C 22,4 C 82 % 1014,9 hPa 0,0 mm 0,0 km/h (0 Bft) W 270 9,5 C 0,0 km/h (0 Bft)
13.09.2015 08:55 13,3 C 22,4 C 81 % 1014,9 hPa 0,0 mm 0,0 km/h (0 Bft) W 270 10,1 C 0,0 km/h (0 Bft)
13.09.2015 09:00 14,4 C 22,6 C 80 % 1014,9 hPa 0,0 mm 0,0 km/h (0 Bft) W 270 11,0 C 0,0 km/h (0 Bft)
13.09.2015 09:05 14,7 C 23,1 C 79 % 1014,9 hPa 0,0 mm 0,0 km/h (0 Bft) W 270 11,1 C 0,0 km/h (0 Bft)
13.09.2015 09:10 15,5 C 23,5 C 78 % 1014,9 hPa 0,0 mm 0,0 km/h (0 Bft) W 270 11,7 C 0,0 km/h (0 Bft)
13.09.2015 09:15 15,7 C 23,1 C 77 % 1015,0 hPa 0,0 mm 0,0 km/h (0 Bft) W 270 11,7 C 0,0 km/h (0 Bft)
13.09.2015 09:20 16,5 C 23,4 C 76 % 1015,0 hPa 0,0 mm 0,0 km/h (0 Bft) W 270 12,3 C 0,0 km/h (0 Bft)
13.09.2015 09:25 16,9 C 23,7 C 74 % 1015,0 hPa 0,0 mm 0,0 km/h (0 Bft) W 270 12,2 C 0,0 km/h (0 Bft)
13.09.2015 09:30 17,2 C 24,4 C 72 % 1015,0 hPa 0,0 mm 0,3 km/h (0 Bft) W 270 12,1 C 4,9 km/h (1 Bft)
13.09.2015 09:35 17,5 C 24,4 C 70 % 1015,1 hPa 0,0 mm 1,3 km/h (1 Bft) NO 45 12,0 C 5,4 km/h (1 Bft)
13.09.2015 09:40 17,7 C 24,5 C 70 % 1015,1 hPa 0,0 mm 2,6 km/h (1 Bft) NO 45 12,2 C 6,0 km/h (2 Bft)
13.09.2015 09:45 17,9 C 24,6 C 69 % 1015,1 hPa 0,0 mm 2,8 km/h (1 Bft) O-NO 67 12,1 C 6,2 km/h (2 Bft)
13.09.2015 09:50 18,2 C 24,8 C 67 % 1015,1 hPa 0,0 mm 3,1 km/h (1 Bft) NO 45 12,0 C 7,8 km/h (2 Bft)
13.09.2015 09:55 18,3 C 24,2 C 67 % 1015,1 hPa 0,0 mm 4,1 km/h (1 Bft) NO 45 12,1 C 6,0 km/h (2 Bft)
13.09.2015 10:00 18,3 C 23,6 C 65 % 1015,1 hPa 0,0 mm 5,2 km/h (1 Bft) O 90 11,6 C 3,4 km/h (1 Bft)
13.09.2015 10:05 17,9 C 22,8 C 65 % 1015,1 hPa 0,0 mm 5,7 km/h (1 Bft) O 90 11,2 C 6,7 km/h (2 Bft)
13.09.2015 10:08 17,5 C 21,3 C 64 % 1015,1 hPa 0,0 mm 5,4 km/h (1 Bft) O-SO 112 10,6 C 4,1 km/h (1 Bft)
13.09.2015 10:10 17,5 C 21,3 C 64 % 1015,1 hPa 0,0 mm 5,4 km/h (1 Bft) O-SO 112 10,6 C 4,1 km/h (1 Bft)
13.09.2015 10:15 17,6 C 21,0 C 64 % 1015,1 hPa 0,0 mm 5,2 km/h (1 Bft) NW 315 10,7 C 4,4 km/h (1 Bft)
13.09.2015 10:20 17,7 C 21,1 C 65 % 1015,1 hPa 0,0 mm 4,1 km/h (1 Bft) O 90 11,0 C 4,1 km/h (1 Bft)
13.09.2015 10:25 18,2 C 21,7 C 65 % 1015,1 hPa 0,0 mm 3,9 km/h (1 Bft) O-NO 67 11,5 C 0,0 km/h (0 Bft)
13.09.2015 10:30 18,2 C 22,2 C 64 % 1015,1 hPa 0,0 mm 5,2 km/h (1 Bft) O-NO 67 11,3 C 11,4 km/h (2 Bft)
13.09.2015 10:35 18,0 C 22,1 C 63 % 1014,7 hPa 0,0 mm 5,4 km/h (1 Bft) O-NO 67 10,8 C 0,0 km/h (0 Bft)
13.09.2015 10:40 18,0 C 21,6 C 63 % 1014,7 hPa 0,0 mm 6,0 km/h (2 Bft) O-NO 67 10,8 C 6,0 km/h (2 Bft)
13.09.2015 10:45 18,4 C 22,1 C 63 % 1014,7 hPa 0,0 mm 6,0 km/h (2 Bft) O-NO 67 11,2 C 10,1 km/h (2 Bft)
13.09.2015 10:50 18,4 C 22,8 C 63 % 1014,7 hPa 0,0 mm 7,0 km/h (2 Bft) O-NO 67 11,2 C 20,2 km/h (4 Bft)
13.09.2015 10:55 18,0 C 21,7 C 63 % 1014,6 hPa 0,0 mm 7,0 km/h (2 Bft) O-SO 112 10,8 C 14,2 km/h (3 Bft)
13.09.2015 11:00 18,0 C 21,7 C 63 % 1014,6 hPa 0,0 mm 6,7 km/h (2 Bft) O-NO 67 10,8 C 6,2 km/h (2 Bft)
13.09.2015 11:05 17,8 C 21,1 C 63 % 1014,6 hPa 0,0 mm 6,2 km/h (2 Bft) W 270 10,7 C 7,8 km/h (2 Bft)
13.09.2015 11:10 17,8 C 20,6 C 64 % 1014,6 hPa 0,0 mm 3,9 km/h (1 Bft) N-NO 22 10,9 C 10,4 km/h (2 Bft)
13.09.2015 11:15 17,9 C 20,5 C 64 % 1014,5 hPa 0,0 mm 3,6 km/h (1 Bft) N-NO 22 11,0 C 5,7 km/h (1 Bft)
13.09.2015 11:20 17,9 C 20,4 C 64 % 1014,5 hPa 0,0 mm 3,9 km/h (1 Bft) N-NO 22 11,0 C 4,9 km/h (1 Bft)
13.09.2015 11:25 17,8 C 20,1 C 65 % 1014,5 hPa 0,0 mm 2,8 km/h (1 Bft) O 90 11,1 C 3,6 km/h (1 Bft)
13.09.2015 11:30 17,9 C 20,3 C 65 % 1014,5 hPa 0,0 mm 3,1 km/h (1 Bft) O-NO 67 11,2 C 4,4 km/h (1 Bft)
13.09.2015 11:35 18,0 C 20,6 C 65 % 1014,3 hPa 0,0 mm 5,2 km/h (1 Bft) NO 45 11,3 C 12,2 km/h (2 Bft)
13.09.2015 11:40 17,9 C 20,7 C 65 % 1014,3 hPa 0,0 mm 3,9 km/h (1 Bft) O-NO 67 11,2 C 0,0 km/h (0 Bft)
13.09.2015 11:45 18,0 C 21,1 C 65 % 1014,3 hPa 0,0 mm 3,4 km/h (1 Bft) NO 45 11,3 C 3,9 km/h (1 Bft)
13.09.2015 11:50 18,8 C 22,5 C 65 % 1014,3 hPa 0,0 mm 3,6 km/h (1 Bft) NO 45 12,1 C 11,1 km/h (2 Bft)
13.09.2015 11:55 18,5 C 22,3 C 64 % 1014,0 hPa 0,0 mm 4,9 km/h (1 Bft) SO 135 11,6 C 7,8 km/h (2 Bft)
13.09.2015 12:00 17,8 C 20,6 C 65 % 1014,0 hPa 0,0 mm 5,2 km/h (1 Bft) O 90 11,1 C 0,0 km/h (0 Bft)
13.09.2015 12:05 17,6 C 20,1 C 65 % 1014,0 hPa 0,0 mm 4,4 km/h (1 Bft) O-NO 67 10,9 C 8,8 km/h (2 Bft)
13.09.2015 12:10 17,7 C 19,7 C 66 % 1014,0 hPa 0,0 mm 2,3 km/h (1 Bft) O-NO 67 11,3 C 2,6 km/h (1 Bft)
13.09.2015 12:15 17,6 C 19,7 C 67 % 1014,0 hPa 0,0 mm 2,6 km/h (1 Bft) N-NO 22 11,4 C 6,2 km/h (2 Bft)
13.09.2015 12:20 17,6 C 19,7 C 66 % 1014,0 hPa 0,0 mm 2,6 km/h (1 Bft) NO 45 11,2 C 2,8 km/h (1 Bft)
13.09.2015 12:25 17,8 C 19,9 C 66 % 1014,0 hPa 0,0 mm 2,8 km/h (1 Bft) NO 45 11,4 C 0,0 km/h (0 Bft)
13.09.2015 12:30 17,9 C 19,8 C 66 % 1014,0 hPa 0,0 mm 3,6 km/h (1 Bft) O-NO 67 11,5 C 3,6 km/h (1 Bft)
13.09.2015 12:35 17,9 C 19,8 C 66 % 1013,6 hPa 0,0 mm 6,2 km/h (2 Bft) NO 45 11,5 C 8,8 km/h (2 Bft)
13.09.2015 12:40 18,1 C 20,0 C 66 % 1013,6 hPa 0,0 mm 6,0 km/h (2 Bft) O-NO 67 11,6 C 3,1 km/h (1 Bft)
13.09.2015 12:45 18,3 C 20,5 C 66 % 1013,6 hPa 0,0 mm 3,9 km/h (1 Bft) NO 45 11,8 C 3,4 km/h (1 Bft)
13.09.2015 12:50 18,8 C 21,9 C 66 % 1013,6 hPa 0,0 mm 4,4 km/h (1 Bft) NO 45 12,3 C 10,6 km/h (2 Bft)
13.09.2015 12:55 18,6 C 21,6 C 65 % 1013,4 hPa 0,0 mm 6,5 km/h (2 Bft) NO 45 11,9 C 4,4 km/h (1 Bft)
13.09.2015 13:00 19,1 C 21,9 C 65 % 1013,4 hPa 0,0 mm 5,4 km/h (1 Bft) O-NO 67 12,4 C 3,4 km/h (1 Bft)
13.09.2015 13:05 19,4 C 22,7 C 65 % 1013,4 hPa 0,0 mm 4,9 km/h (1 Bft) NO 45 12,6 C 12,4 km/h (3 Bft)
13.09.2015 13:10 19,9 C 23,5 C 64 % 1013,4 hPa 0,0 mm 6,5 km/h (2 Bft) N-NO 22 12,9 C 10,1 km/h (2 Bft)
13.09.2015 13:15 19,5 C 23,0 C 63 % 1013,0 hPa 0,0 mm 7,8 km/h (2 Bft) SO 135 12,3 C 4,1 km/h (1 Bft)
13.09.2015 13:20 19,2 C 22,1 C 62 % 1013,0 hPa 0,0 mm 7,8 km/h (2 Bft) O-NO 67 11,7 C 11,9 km/h (2 Bft)
13.09.2015 13:25 19,3 C 22,0 C 63 % 1013,0 hPa 0,0 mm 5,4 km/h (1 Bft) N-NW 337 12,1 C 5,4 km/h (1 Bft)
13.09.2015 13:30 19,5 C 22,4 C 63 % 1013,0 hPa 0,0 mm 3,9 km/h (1 Bft) O-NO 67 12,3 C 2,6 km/h (1 Bft)
13.09.2015 13:35 19,4 C 22,7 C 63 % 1013,2 hPa 0,0 mm 4,7 km/h (1 Bft) O-NO 67 12,2 C 9,8 km/h (2 Bft)
13.09.2015 13:40 19,4 C 22,7 C 63 % 1013,2 hPa 0,0 mm 3,9 km/h (1 Bft) SO 135 12,2 C 4,4 km/h (1 Bft)
13.09.2015 13:45 19,4 C 22,4 C 63 % 1013,2 hPa 0,0 mm 2,6 km/h (1 Bft) NO 45 12,2 C 0,0 km/h (0 Bft)
13.09.2015 13:50 19,6 C 22,6 C 63 % 1013,2 hPa 0,0 mm 1,8 km/h (1 Bft) NO 45 12,4 C 3,1 km/h (1 Bft)
13.09.2015 13:55 19,8 C 22,6 C 63 % 1012,9 hPa 0,0 mm 2,1 km/h (1 Bft) N-NO 22 12,5 C 5,2 km/h (1 Bft)
13.09.2015 14:00 19,9 C 22,8 C 63 % 1012,9 hPa 0,0 mm 2,3 km/h (1 Bft) NO 45 12,6 C 3,6 km/h (1 Bft)
13.09.2015 14:05 19,8 C 22,6 C 64 % 1012,9 hPa 0,0 mm 1,8 km/h (1 Bft) O 90 12,8 C 0,0 km/h (0 Bft)
13.09.2015 14:10 19,5 C 22,1 C 65 % 1012,9 hPa 0,0 mm 1,3 km/h (1 Bft) SO 135 12,7 C 3,1 km/h (1 Bft)
13.09.2015 14:15 19,4 C 21,8 C 66 % 1012,8 hPa 0,0 mm 0,8 km/h (0 Bft) NO 45 12,9 C 3,4 km/h (1 Bft)
13.09.2015 14:20 19,5 C 21,6 C 66 % 1012,8 hPa 0,0 mm 0,5 km/h (0 Bft) NO 45 13,0 C 0,0 km/h (0 Bft)
13.09.2015 14:25 19,5 C 21,5 C 65 % 1012,8 hPa 0,0 mm 0,3 km/h (0 Bft) NO 45 12,7 C 3,1 km/h (1 Bft)
13.09.2015 14:30 19,4 C 21,2 C 66 % 1012,8 hPa 0,0 mm 0,3 km/h (0 Bft) O-SO 112 12,9 C 2,6 km/h (1 Bft)
13.09.2015 14:35 19,3 C 21,1 C 66 % 1012,4 hPa 0,0 mm 0,3 km/h (0 Bft) O-SO 112 12,8 C 0,0 km/h (0 Bft)
13.09.2015 14:40 19,2 C 20,9 C 67 % 1012,4 hPa 0,0 mm 0,5 km/h (0 Bft) S-SO 157 12,9 C 3,1 km/h (1 Bft)
13.09.2015 14:45 19,1 C 20,8 C 67 % 1012,4 hPa 0,0 mm 0,5 km/h (0 Bft) NO 45 12,8 C 0,0 km/h (0 Bft)
13.09.2015 14:50 19,0 C 20,5 C 68 % 1012,4 hPa 0,0 mm 0,8 km/h (0 Bft) NO 45 13,0 C 0,0 km/h (0 Bft)
13.09.2015 14:55 19,0 C 20,5 C 69 % 1012,1 hPa 0,0 mm 0,5 km/h (0 Bft) NO 45 13,2 C 0,0 km/h (0 Bft)
13.09.2015 15:00 19,1 C 20,5 C 68 % 1012,1 hPa 0,0 mm 0,0 km/h (0 Bft) NO 45 13,1 C 0,0 km/h (0 Bft)
13.09.2015 15:05 19,2 C 20,6 C 69 % 1012,1 hPa 0,0 mm 0,0 km/h (0 Bft) O-NO 67 13,4 C 0,0 km/h (0 Bft)
13.09.2015 15:10 19,2 C 20,6 C 70 % 1012,1 hPa 0,0 mm 0,0 km/h (0 Bft) N-NO 22 13,6 C 0,0 km/h (0 Bft)
13.09.2015 15:15 19,2 C 20,5 C 70 % 1012,0 hPa 0,0 mm 0,3 km/h (0 Bft) N-NO 22 13,6 C 0,0 km/h (0 Bft)
13.09.2015 15:20 19,2 C 20,4 C 70 % 1012,0 hPa 0,0 mm 0,5 km/h (0 Bft) W-NW 292 13,6 C 0,0 km/h (0 Bft)
13.09.2015 15:25 19,4 C 20,6 C 70 % 1012,0 hPa 0,0 mm 0,5 km/h (0 Bft) N-NW 337 13,8 C 0,0 km/h (0 Bft)
13.09.2015 15:30 19,5 C 21,2 C 70 % 1012,0 hPa 0,0 mm 0,5 km/h (0 Bft) W 270 13,9 C 0,0 km/h (0 Bft)
13.09.2015 15:35 19,6 C 21,5 C 69 % 1011,6 hPa 0,0 mm 0,0 km/h (0 Bft) W 270 13,8 C 0,0 km/h (0 Bft)
13.09.2015 15:40 19,7 C 21,6 C 70 % 1011,6 hPa 0,0 mm 0,0 km/h (0 Bft) W 270 14,1 C 0,0 km/h (0 Bft)
13.09.2015 15:45 19,8 C 21,7 C 70 % 1011,6 hPa 0,0 mm 0,0 km/h (0 Bft) W 270 14,2 C 0,0 km/h (0 Bft)
13.09.2015 15:50 19,5 C 21,6 C 70 % 1011,6 hPa 0,0 mm 0,0 km/h (0 Bft) NW 315 13,9 C 0,0 km/h (0 Bft)
13.09.2015 15:55 19,4 C 21,3 C 70 % 1011,2 hPa 0,0 mm 0,0 km/h (0 Bft) NW 315 13,8 C 0,0 km/h (0 Bft)
13.09.2015 16:00 19,2 C 21,1 C 71 % 1011,2 hPa 0,0 mm 0,0 km/h (0 Bft) N-NO 22 13,8 C 0,0 km/h (0 Bft)
13.09.2015 16:05 19,1 C 20,9 C 72 % 1011,2 hPa 0,0 mm 0,0 km/h (0 Bft) N-NO 22 13,9 C 0,0 km/h (0 Bft)
13.09.2015 16:09 19,1 C 20,7 C 72 % 1011,2 hPa 0,0 mm 0,0 km/h (0 Bft) N-NO 22 13,9 C 0,0 km/h (0 Bft)
13.09.2015 16:15 19,0 C 20,6 C 72 % 1011,6 hPa 0,0 mm 0,0 km/h (0 Bft) N-NO 22 13,8 C 0,0 km/h (0 Bft)
13.09.2015 16:20 18,9 C 20,6 C 73 % 1011,6 hPa 0,0 mm 0,0 km/h (0 Bft) N-NO 22 13,9 C 0,0 km/h (0 Bft)
13.09.2015 16:25 18,9 C 20,5 C 73 % 1011,6 hPa 0,0 mm 0,0 km/h (0 Bft) N-NO 22 13,9 C 0,0 km/h (0 Bft)
13.09.2015 16:30 19,1 C 20,6 C 73 % 1011,6 hPa 0,0 mm 0,0 km/h (0 Bft) N-NO 22 14,1 C 0,0 km/h (0 Bft)
13.09.2015 16:35 19,2 C 21,0 C 74 % 1011,6 hPa 0,0 mm 0,0 km/h (0 Bft) N-NO 22 14,4 C 0,0 km/h (0 Bft)
13.09.2015 16:40 19,3 C 21,1 C 74 % 1011,6 hPa 0,0 mm 1,0 km/h (0 Bft) W 270 14,5 C 9,6 km/h (2 Bft)
13.09.2015 16:45 19,3 C 20,8 C 73 % 1011,6 hPa 0,0 mm 2,6 km/h (1 Bft) W-NW 292 14,3 C 3,6 km/h (1 Bft)
13.09.2015 16:50 19,3 C 20,4 C 73 % 1011,6 hPa 0,0 mm 3,9 km/h (1 Bft) W 270 14,3 C 12,4 km/h (3 Bft)
13.09.2015 16:55 19,3 C 20,4 C 72 % 1011,9 hPa 0,0 mm 3,6 km/h (1 Bft) W 270 14,1 C 8,0 km/h (2 Bft)
13.09.2015 17:00 19,5 C 20,8 C 70 % 1011,9 hPa 0,0 mm 6,5 km/h (2 Bft) NW 315 13,9 C 22,3 km/h (4 Bft)
13.09.2015 17:05 19,4 C 20,7 C 70 % 1011,9 hPa 0,0 mm 7,5 km/h (2 Bft) W 270 13,8 C 8,5 km/h (2 Bft)
13.09.2015 17:10 19,3 C 20,3 C 70 % 1011,9 hPa 0,0 mm 6,5 km/h (2 Bft) N-NW 337 13,7 C 7,5 km/h (2 Bft)
13.09.2015 17:15 19,2 C 20,1 C 70 % 1012,1 hPa 0,0 mm 5,7 km/h (1 Bft) W 270 13,6 C 3,6 km/h (1 Bft)
13.09.2015 17:20 19,1 C 19,8 C 70 % 1012,1 hPa 0,0 mm 2,8 km/h (1 Bft) W-SW 247 13,5 C 0,0 km/h (0 Bft)
13.09.2015 17:25 19,0 C 19,8 C 70 % 1012,1 hPa 0,0 mm 1,8 km/h (1 Bft) W-SW 247 13,4 C 0,0 km/h (0 Bft)
13.09.2015 17:30 19,0 C 19,8 C 70 % 1012,1 hPa 0,0 mm 2,1 km/h (1 Bft) W-NW 292 13,4 C 5,4 km/h (1 Bft)
13.09.2015 17:35 18,9 C 19,7 C 70 % 1011,6 hPa 0,0 mm 1,6 km/h (1 Bft) NW 315 13,3 C 0,0 km/h (0 Bft)
13.09.2015 17:40 18,8 C 19,6 C 70 % 1011,6 hPa 0,0 mm 1,0 km/h (0 Bft) SW 225 13,2 C 0,0 km/h (0 Bft)
13.09.2015 17:45 18,8 C 19,5 C 70 % 1011,6 hPa 0,0 mm 0,3 km/h (0 Bft) NW 315 13,2 C 0,0 km/h (0 Bft)
13.09.2015 17:50 18,6 C 19,3 C 70 % 1011,6 hPa 0,0 mm 0,0 km/h (0 Bft) W-SW 247 13,0 C 0,0 km/h (0 Bft)
13.09.2015 17:55 18,5 C 19,1 C 70 % 1011,6 hPa 0,0 mm 0,0 km/h (0 Bft) W-SW 247 12,9 C 0,0 km/h (0 Bft)
13.09.2015 18:00 18,3 C 18,9 C 70 % 1011,6 hPa 0,0 mm 0,3 km/h (0 Bft) S 180 12,7 C 0,0 km/h (0 Bft)
13.09.2015 18:05 18,2 C 18,7 C 71 % 1011,6 hPa 0,0 mm 0,3 km/h (0 Bft) W-NW 292 12,9 C 0,0 km/h (0 Bft)
13.09.2015 18:10 18,1 C 18,5 C 71 % 1011,6 hPa 0,0 mm 0,3 km/h (0 Bft) SW 225 12,8 C 0,0 km/h (0 Bft)
13.09.2015 18:15 17,9 C 18,3 C 71 % 1011,5 hPa 0,0 mm 0,5 km/h (0 Bft) SW 225 12,6 C 3,1 km/h (1 Bft)
13.09.2015 18:20 17,7 C 18,1 C 71 % 1011,5 hPa 0,0 mm 0,5 km/h (0 Bft) S-SW 202 12,4 C 2,6 km/h (1 Bft)
13.09.2015 18:25 17,5 C 17,9 C 72 % 1011,5 hPa 0,0 mm 0,3 km/h (0 Bft) S 180 12,4 C 0,0 km/h (0 Bft)
13.09.2015 18:30 17,3 C 17,6 C 73 % 1011,5 hPa 0,0 mm 0,0 km/h (0 Bft) S-SO 157 12,4 C 0,0 km/h (0 Bft)
13.09.2015 18:35 17,1 C 17,4 C 73 % 1011,2 hPa 0,0 mm 0,3 km/h (0 Bft) SO 135 12,2 C 0,0 km/h (0 Bft)
13.09.2015 18:40 17,1 C 17,3 C 73 % 1011,2 hPa 0,0 mm 0,3 km/h (0 Bft) O-SO 112 12,2 C 0,0 km/h (0 Bft)
13.09.2015 18:45 17,3 C 17,3 C 73 % 1011,2 hPa 0,0 mm 0,0 km/h (0 Bft) SO 135 12,4 C 0,0 km/h (0 Bft)
13.09.2015 18:50 17,2 C 17,4 C 73 % 1011,2 hPa 0,0 mm 0,0 km/h (0 Bft) S-SO 157 12,3 C 0,0 km/h (0 Bft)
13.09.2015 18:55 17,1 C 17,4 C 74 % 1011,0 hPa 0,0 mm 1,3 km/h (1 Bft) S-SO 157 12,4 C 3,9 km/h (1 Bft)
13.09.2015 19:00 17,0 C 17,4 C 75 % 1011,0 hPa 0,0 mm 3,4 km/h (1 Bft) S 180 12,5 C 4,9 km/h (1 Bft)
13.09.2015 19:05 16,9 C 17,4 C 76 % 1011,0 hPa 0,0 mm 3,6 km/h (1 Bft) S-SO 157 12,6 C 3,9 km/h (1 Bft)
13.09.2015 19:10 16,9 C 17,3 C 76 % 1011,0 hPa 0,0 mm 3,6 km/h (1 Bft) S-SO 157 12,6 C 3,1 km/h (1 Bft)
13.09.2015 19:15 16,9 C 17,3 C 77 % 1011,0 hPa 0,0 mm 3,1 km/h (1 Bft) S-SO 157 12,8 C 3,1 km/h (1 Bft)
13.09.2015 19:20 16,8 C 17,3 C 76 % 1011,0 hPa 0,0 mm 1,3 km/h (1 Bft) SO 135 12,5 C 0,0 km/h (0 Bft)
13.09.2015 19:25 16,6 C 17,1 C 76 % 1011,0 hPa 0,0 mm 0,3 km/h (0 Bft) O-NO 67 12,3 C 0,0 km/h (0 Bft)
13.09.2015 19:30 16,4 C 16,9 C 76 % 1011,0 hPa 0,0 mm 0,0 km/h (0 Bft) SO 135 12,2 C 0,0 km/h (0 Bft)
13.09.2015 19:35 16,3 C 16,7 C 76 % 1010,8 hPa 0,0 mm 0,0 km/h (0 Bft) SO 135 12,1 C 0,0 km/h (0 Bft)
13.09.2015 19:40 16,1 C 16,4 C 76 % 1010,8 hPa 0,0 mm 0,0 km/h (0 Bft) SW 225 11,9 C 0,0 km/h (0 Bft)
13.09.2015 19:45 16,2 C 16,3 C 76 % 1010,8 hPa 0,0 mm 0,3 km/h (0 Bft) SW 225 12,0 C 0,0 km/h (0 Bft)
13.09.2015 19:50 15,9 C 16,0 C 77 % 1010,8 hPa 0,0 mm 0,3 km/h (0 Bft) SO 135 11,9 C 0,0 km/h (0 Bft)
13.09.2015 19:55 15,9 C 15,9 C 78 % 1011,0 hPa 0,0 mm 0,0 km/h (0 Bft) SO 135 12,1 C 0,0 km/h (0 Bft)
13.09.2015 20:00 15,9 C 15,8 C 78 % 1011,0 hPa 0,0 mm 0,0 km/h (0 Bft) S-SW 202 12,1 C 2,6 km/h (1 Bft)
13.09.2015 20:05 15,8 C 15,8 C 78 % 1011,0 hPa 0,0 mm 0,8 km/h (0 Bft) SW 225 12,0 C 7,0 km/h (2 Bft)
13.09.2015 20:10 15,6 C 15,6 C 78 % 1011,0 hPa 0,0 mm 1,0 km/h (0 Bft) S 180 11,8 C 0,0 km/h (0 Bft)
13.09.2015 20:15 15,4 C 15,4 C 78 % 1010,6 hPa 0,0 mm 0,8 km/h (0 Bft) S 180 11,6 C 0,0 km/h (0 Bft)
13.09.2015 20:20 15,4 C 15,3 C 78 % 1010,6 hPa 0,0 mm 0,0 km/h (0 Bft) S 180 11,6 C 0,0 km/h (0 Bft)
13.09.2015 20:25 15,4 C 15,3 C 79 % 1010,6 hPa 0,0 mm 0,0 km/h (0 Bft) S-SO 157 11,8 C 0,0 km/h (0 Bft)
13.09.2015 20:30 15,4 C 15,4 C 79 % 1010,6 hPa 0,0 mm 0,0 km/h (0 Bft) S-SO 157 11,8 C 0,0 km/h (0 Bft)
13.09.2015 20:35 15,5 C 15,6 C 78 % 1010,4 hPa 0,0 mm 0,0 km/h (0 Bft) O-NO 67 11,7 C 0,0 km/h (0 Bft)
13.09.2015 20:40 15,5 C 15,6 C 78 % 1010,4 hPa 0,0 mm 0,0 km/h (0 Bft) O-NO 67 11,7 C 0,0 km/h (0 Bft)
13.09.2015 20:45 15,5 C 15,6 C 78 % 1010,4 hPa 0,0 mm 0,0 km/h (0 Bft) O-SO 112 11,7 C 0,0 km/h (0 Bft)
13.09.2015 20:50 15,5 C 15,6 C 78 % 1010,4 hPa 0,0 mm 0,0 km/h (0 Bft) O 90 11,7 C 0,0 km/h (0 Bft)
13.09.2015 20:55 15,6 C 15,6 C 78 % 1010,2 hPa 0,0 mm 0,0 km/h (0 Bft) SO 135 11,8 C 0,0 km/h (0 Bft)
13.09.2015 21:00 15,7 C 15,7 C 78 % 1010,2 hPa 0,0 mm 0,0 km/h (0 Bft) SW 225 11,9 C 0,0 km/h (0 Bft)
13.09.2015 21:05 15,6 C 15,6 C 77 % 1010,2 hPa 0,0 mm 0,0 km/h (0 Bft) W-SW 247 11,6 C 0,0 km/h (0 Bft)
13.09.2015 21:10 15,4 C 15,5 C 77 % 1010,2 hPa 0,0 mm 0,0 km/h (0 Bft) W-SW 247 11,4 C 0,0 km/h (0 Bft)
13.09.2015 21:15 15,4 C 15,4 C 78 % 1010,3 hPa 0,0 mm 0,0 km/h (0 Bft) S 180 11,6 C 0,0 km/h (0 Bft)
13.09.2015 21:20 15,5 C 15,5 C 78 % 1010,3 hPa 0,0 mm 0,0 km/h (0 Bft) SW 225 11,7 C 0,0 km/h (0 Bft)
13.09.2015 21:25 15,4 C 15,4 C 78 % 1010,3 hPa 0,0 mm 0,0 km/h (0 Bft) S 180 11,6 C 0,0 km/h (0 Bft)
13.09.2015 21:30 15,1 C 15,2 C 77 % 1010,3 hPa 0,0 mm 0,5 km/h (0 Bft) SW 225 11,1 C 0,0 km/h (0 Bft)
13.09.2015 21:35 15,1 C 15,1 C 78 % 1010,1 hPa 0,0 mm 0,5 km/h (0 Bft) SO 135 11,3 C 0,0 km/h (0 Bft)
13.09.2015 21:40 14,9 C 14,8 C 79 % 1010,1 hPa 0,0 mm 0,8 km/h (0 Bft) S-SO 157 11,3 C 2,6 km/h (1 Bft)
13.09.2015 21:45 14,8 C 14,7 C 78 % 1010,1 hPa 0,0 mm 1,6 km/h (1 Bft) S-SW 202 11,0 C 6,2 km/h (2 Bft)
13.09.2015 21:50 14,7 C 14,7 C 77 % 1010,1 hPa 0,0 mm 3,1 km/h (1 Bft) S-SO 157 10,7 C 2,6 km/h (1 Bft)
13.09.2015 21:55 14,5 C 14,5 C 76 % 1010,1 hPa 0,0 mm 4,4 km/h (1 Bft) S-SW 202 10,3 C 9,1 km/h (2 Bft)
13.09.2015 22:00 14,1 C 14,3 C 77 % 1010,1 hPa 0,0 mm 4,1 km/h (1 Bft) O-SO 112 10,1 C 0,0 km/h (0 Bft)
13.09.2015 22:05 14,2 C 14,2 C 77 % 1010,1 hPa 0,0 mm 3,4 km/h (1 Bft) NW 315 10,2 C 0,0 km/h (0 Bft)
13.09.2015 22:10 13,8 C 13,6 C 78 % 1010,2 hPa 0,0 mm 1,8 km/h (1 Bft) SO 135 10,0 C 4,4 km/h (1 Bft)
13.09.2015 22:15 13,8 C 13,6 C 78 % 1010,2 hPa 0,0 mm 1,8 km/h (1 Bft) SO 135 10,0 C 4,4 km/h (1 Bft)
13.09.2015 22:20 13,4 C 13,4 C 77 % 1010,2 hPa 0,0 mm 2,1 km/h (1 Bft) O-SO 112 9,5 C 4,1 km/h (1 Bft)
13.09.2015 22:25 13,3 C 13,3 C 77 % 1010,2 hPa 0,0 mm 1,8 km/h (1 Bft) W 270 9,4 C 0,0 km/h (0 Bft)
13.09.2015 22:30 12,8 C 12,8 C 78 % 1010,2 hPa 0,0 mm 1,0 km/h (0 Bft) O-SO 112 9,1 C 0,0 km/h (0 Bft)
13.09.2015 22:35 12,7 C 12,7 C 78 % 1009,9 hPa 0,0 mm 0,3 km/h (0 Bft) S 180 9,0 C 0,0 km/h (0 Bft)
13.09.2015 22:40 12,3 C 12,3 C 78 % 1009,9 hPa 0,0 mm 0,3 km/h (0 Bft) S-SO 157 8,6 C 0,0 km/h (0 Bft)
13.09.2015 22:45 12,3 C 12,2 C 78 % 1009,9 hPa 0,0 mm 0,3 km/h (0 Bft) SO 135 8,6 C 0,0 km/h (0 Bft)
13.09.2015 22:50 12,1 C 12,0 C 79 % 1009,9 hPa 0,0 mm 0,0 km/h (0 Bft) SO 135 8,6 C 0,0 km/h (0 Bft)
13.09.2015 22:55 11,9 C 11,8 C 79 % 1009,9 hPa 0,0 mm 0,0 km/h (0 Bft) SW 225 8,4 C 0,0 km/h (0 Bft)
13.09.2015 23:00 11,8 C 11,7 C 79 % 1009,9 hPa 0,0 mm 0,0 km/h (0 Bft) O 90 8,3 C 0,0 km/h (0 Bft)
13.09.2015 23:05 11,8 C 11,7 C 80 % 1009,9 hPa 0,0 mm 0,5 km/h (0 Bft) W-NW 292 8,5 C 5,2 km/h (1 Bft)
13.09.2015 23:10 11,4 C 11,4 C 79 % 1009,9 hPa 0,0 mm 0,8 km/h (0 Bft) N-NW 337 7,9 C 0,0 km/h (0 Bft)
13.09.2015 23:15 11,5 C 11,4 C 81 % 1009,7 hPa 0,0 mm 1,0 km/h (0 Bft) O-SO 112 8,4 C 3,6 km/h (1 Bft)
13.09.2015 23:20 12,3 C 12,1 C 79 % 1009,7 hPa 0,0 mm 1,3 km/h (1 Bft) W 270 8,8 C 0,0 km/h (0 Bft)
13.09.2015 23:25 12,2 C 12,0 C 81 % 1009,7 hPa 0,0 mm 1,0 km/h (0 Bft) O-SO 112 9,0 C 0,0 km/h (0 Bft)
13.09.2015 23:30 11,8 C 11,8 C 81 % 1009,7 hPa 0,0 mm 0,3 km/h (0 Bft) SW 225 8,6 C 0,0 km/h (0 Bft)
13.09.2015 23:35 11,5 C 11,7 C 80 % 1009,2 hPa 0,0 mm 0,3 km/h (0 Bft) NO 45 8,2 C 0,0 km/h (0 Bft)
13.09.2015 23:40 11,6 C 11,7 C 81 % 1009,2 hPa 0,0 mm 0,0 km/h (0 Bft) W-SW 247 8,5 C 2,6 km/h (1 Bft)
13.09.2015 23:45 11,5 C 11,7 C 81 % 1009,2 hPa 0,0 mm 0,0 km/h (0 Bft) N-NO 22 8,4 C 0,0 km/h (0 Bft)
13.09.2015 23:50 11,1 C 11,6 C 81 % 1009,2 hPa 0,0 mm 0,5 km/h (0 Bft) N 360 8,0 C 5,4 km/h (1 Bft)
13.09.2015 23:55 11,1 C 11,6 C 81 % 1009,0 hPa 0,0 mm 0,8 km/h (0 Bft) W-NW 292 8,0 C 0,0 km/h (0 Bft)
_ Min-Zeit 07:20 07:20 13:20 23:55 - 23:45 - - 07:20 23:55
Minimum _ 7,1 C 7,1 C 62 % 1009,0 hPa - 0,0 km/h (0 Bft) - - 4,9 C 0,0 km/h (0 Bft)
_ Max-Zeit 14:00 09:50 08:05 02:10 23:55 13:20 - - 16:40 17:00
Maximum _ 19,9 C 24,8 C 88 % 1017,5 hPa 0,0 mm 7,8 km/h
O-NO (2 Bft)
- - 14,5 C 22,3 km/h
NW (4 Bft)
Durchschnitt _ 14,5 C 15,9 C 75 % 1013,7 hPa #0,0 mm 1,5 km/h (1 Bft) NO - 10,0 C 2,3 km/h (1 Bft)